Location: Rodanthe
(35.5920°N, 75.4670°W)
Time: 19:57:41
(UTC-04:00)

ISS - All Passes

Search period start: 18 April 2014 00:00
Search period end: 28 April 2014 00:00
Orbit: 414 x 419 km, 51.6° (Epoch: 18 April)

Date Brightness Start Highest point End Pass type
(mag) Time Alt. Az. Time Alt. Az. Time Alt. Az.
18 Apr - 00:00:00 28° S 23:59:45 31° S 00:01:58 10° SSE night (unlit)
18 Apr - 14:59:49 10° S 15:02:41 27° SE 15:05:35 10° ENE daylight
18 Apr - 16:36:31 10° W 16:39:24 26° NNW 16:42:18 10° NNE daylight
18 Apr - 21:31:32 10° N 21:33:28 14° NNE 21:35:23 10° ENE visible
18 Apr - 23:07:13 10° NW 23:10:34 79° SW 23:13:55 10° SE visible
19 Apr - 14:12:34 10° SSE 14:14:30 15° SE 14:16:27 10° E daylight
19 Apr - 15:47:45 10° WSW 15:50:57 44° NW 15:54:11 10° NE daylight
19 Apr - 20:44:18 10° NNE 20:44:50 10° NNE 20:45:23 10° NNE visible
19 Apr - 22:18:54 10° NW 22:22:13 54° NE 22:25:30 10° ESE visible
19 Apr - 23:57:12 10° WSW 23:58:35 12° SW 23:59:58 10° SSW night (unlit)
20 Apr - 14:59:13 10° SW 15:02:32 84° NW 15:05:54 10° NE daylight
20 Apr - 16:38:08 10° NW 16:39:44 13° NNW 16:41:20 10° N daylight
20 Apr - 21:30:42 10° NNW 21:33:44 31° NE 21:36:45 10° E visible
20 Apr - 23:07:40 10° WNW 23:10:21 22° SW 23:13:01 10° S visible
21 Apr - 14:10:56 10° SSW 14:14:09 48° SE 14:17:24 10° ENE daylight
21 Apr - 15:48:39 10° WNW 15:51:04 18° NNW 15:53:30 10° NNE daylight
21 Apr - 20:42:36 10° NNW 20:45:09 20° NNE 20:47:42 10° E visible
21 Apr - 22:18:50 10° WNW 22:22:01 42° SW 22:25:12 10° SSE visible
22 Apr - 13:23:01 10° S 13:25:47 25° SE 13:28:35 10° ENE daylight
22 Apr - 14:59:31 10° W 15:02:27 28° NW 15:05:24 10° NNE daylight
22 Apr - 19:54:40 10° N 19:56:27 14° NNE 19:58:15 10° ENE daylight
22 Apr - 21:30:14 10° NW 21:33:35 86° SW 21:36:56 10° SE visible
23 Apr - 12:35:44 10° SSE 12:37:26 13° SE 12:39:09 10° E daylight
23 Apr - 14:10:36 10° WSW 14:13:50 48° NW 14:17:06 10° NE daylight
23 Apr - 20:41:46 10° NW 20:45:03 49° NE 20:48:18 10° ESE visible
23 Apr - 22:19:46 10° W 22:21:26 13° SW 22:23:06 10° SSW visible
24 Apr - 13:21:56 10° SW 13:25:16 88° SE 13:28:37 10° NE daylight
24 Apr - 15:00:39 10° WNW 15:02:24 13° NNW 15:04:09 10° N daylight
24 Apr - 19:53:25 10° NNW 19:56:23 28° NE 19:59:20 10° E daylight
24 Apr - 21:30:15 10° WNW 21:33:02 24° SW 21:35:48 10° S visible
25 Apr - 12:33:33 10° SSW 12:36:43 43° SE 12:39:54 10° ENE daylight
25 Apr - 14:11:04 10° W 14:13:35 19° NNW 14:16:06 10° NNE daylight
25 Apr - 19:05:10 10° NNW 19:07:37 19° NNE 19:10:03 10° ENE daylight
25 Apr - 20:41:17 10° WNW 20:44:31 47° SW 20:47:44 10° SSE visible
26 Apr - 11:45:31 10° S 11:48:11 22° SE 11:50:51 10° ENE daylight
26 Apr - 13:21:48 10° W 13:24:47 30° NW 13:27:47 10° NNE daylight
26 Apr - 18:17:07 10° N 18:18:44 13° NNE 18:20:21 10° NE daylight
26 Apr - 19:52:33 10° NW 19:55:54 85° NE 19:59:14 10° SE daylight
27 Apr - 10:58:20 10° SSE 10:59:40 12° SE 11:01:01 10° ESE daylight
27 Apr - 12:32:45 10° WSW 12:36:01 53° NW 12:39:18 10° NE daylight
27 Apr - 14:12:58 10° NNW 14:13:22 10° NNW 14:13:45 10° NNW daylight
27 Apr - 19:03:57 10° NW 19:07:10 44° NE 19:10:23 10° ESE daylight
27 Apr - 20:41:39 10° W 20:43:36 15° SW 20:45:32 10° SSW visible
